Location: Unspecified
(0.0000°N, 0.0000°E)
Time: 18:24:20
(UTC+00:00)

Courier 1B Rocket - Pass Details

Date: 10 October 2020
Orbit: 921 x 1202 km, 28.2° (Epoch: 27 October)

Event Time Altitude Azimuth Distance (km) Brightness Sun altitude
Rises 22:29:20 0° 251° (WSW) 4,084 - -69.4°
Reaches altitude 10° 22:32:16 10° 256° (WSW) 3,128 - -70.1°
Maximum altitude 22:39:49 51° 330° (NNW) 1,467 - -71.9°
Drops below altitude 10° 22:47:12 10° 44° (NE) 3,058 - -73.5°
Sets 22:50:03 0° 50° (NE) 3,987 - -74.2°
